[[{"header":{"parameterUnit":"m.s-1","parameterCategory":2,"la1":30.2992,"la2":30.254,"lo1":-89.0895,"lo2":-89.0443,"dy":0.0025,"dx":0.0025,"nx":19,"ny":19,"refTime":"2026-05-17T03:00:00:Z","depth":"0","parameterNumber":2,"parameterNumberName":"U-component_of_CURRENTS"},"data":[0,0,0,0.1821,0.1821,0.1846,0.1846,0.1989,0.1991,0,0,0,0,0,0,0,0,0,0,0,0.1808,0.1808,0.1821,0.1821,0.1846,0.1846,0.1989,0.1991,0,0,0,0,0,0,0,0,0,0,0,0.1808,0.1808,0.1808,0.1821,0.1846,0.1846,0.1988,0.1942,0,0,0,0,0,0,0,0,0,0,0.1904,0.1877,0.1808,0.1808,0.1822,0.1846,0.1846,0.1939,0.1945,0.2009,0,0.2007,0,0.2008,0.2003,0.2003,0,0,0,0.1822,0.1871,0.1879,0.1808,0.1822,0.1846,0.1835,0.1941,0.1949,0.2018,0.2009,0.2014,0.201,0.2004,0.2005,0.2135,0.2135,0,0,0.1821,0.1818,0.1873,0.1883,0.1824,0.1834,0.1836,0.1945,0.1954,0.2009,0.2017,0.2012,0.2005,0.2006,0.2135,0.2135,0,0,0,0.1816,0.1817,0.1819,0.1878,0.1877,0.1835,0.1837,0.1948,0.1949,0.2018,0.2014,0.2006,0.2008,0.2135,0.2135,0.2107,0,0,0,0.1815,0.1814,0.1818,0.1818,0.1873,0.1898,0.1838,0.1941,0.1953,0.2013,0.2006,0.201,0.2135,0.2135,0.2108,0.2118,0,0,0,0.1808,0.1814,0.1814,0.1817,0.1828,0.1896,0.1902,0.1942,0.1952,0.2003,0.201,0.2135,0.2135,0.2108,0.2118,0.2159,0,0,0,0.1807,0.1801,0.1814,0.1815,0.1828,0.1852,0.1901,0.1932,0.197,0.2007,0.2135,0.2135,0.2108,0.2118,0.2158,0.2032,0.2024,0,0,0.1797,0.18,0.1801,0.1813,0.182,0.1849,0.1884,0.1952,0.1999,0.2107,0.2109,0.2107,0.2118,0.2158,0.2044,0.2035,0,0,0,0.1796,0.1789,0.1797,0.1805,0.1832,0.1866,0.1921,0.1963,0.2039,0.2023,0.2119,0.2128,0.2154,0.2077,0.2071,0.1801,0.2136,0.2136,0.2136,0.1765,0.1778,0.1777,0.1797,0.1823,0.1887,0.1932,0.2004,0.2043,0.2069,0.2113,0.2137,0.2052,0.2047,0.177,0.211,0.211,0.211,0.211,0.1737,0.1731,0.1761,0.1762,0.1812,0.1854,0.1964,0.2001,0.2108,0.211,0.2136,0.206,0.2038,0.1745,0.2108,0.2109,0.2109,0.2109,0.2109,0.1705,0.1703,0.1711,0.1727,0.1768,0.1839,0.1921,0.2014,0.2095,0.213,0.2077,0.2076,0.1816,0.2145,0.2146,0.2146,0.2146,0.2146,0.2146,0.1667,0.1676,0.1671,0.1695,0.1713,0.1778,0.1912,0.1986,0.2048,0.2062,0.2061,0.1774,0.2149,0.2145,0.2149,0.2149,0.2148,0.2148,0.2148,0.1618,0.1635,0.1618,0.1628,0.1676,0.1712,0.1842,0.1909,0.1985,0.1984,0.1641,0.2032,0.2043,0.2046,0.204,0.2018,0.2018,0.2018,0.2018,0.1587,0.1595,0.1571,0.1579,0.1622,0.1682,0.1687,0.1698,0.1578,0.1418,0.1436,0.1325,0.1343,0.1308,0.1327,0.1305,0.1097,0.1095,0.1094,0.156,0.1555,0.1526,0.1538,0.1588,0.1636,0.1574,0.1374,0.1092,0.1033,0.1083,0.1122,0.094,0.0989,0.0922,0.0971,0.0934,0,0]},{"header":{"parameterUnit":"m.s-1","parameterCategory":2,"la1":30.2992,"la2":30.254,"lo1":-89.0895,"lo2":-89.0443,"dy":0.0025,"dx":0.0025,"nx":19,"ny":19,"refTime":"2026-05-17T03:00:00:Z","depth":"0","parameterNumber":3,"parameterNumberName":"V-component_of_CURRENTS"},"data":[0,0,0,0.0365,0.0366,0.0419,0.0419,0.0509,0.051,0,0,0,0,0,0,0,0,0,0,0,0.0348,0.0348,0.0365,0.0366,0.0419,0.0419,0.0509,0.051,0,0,0,0,0,0,0,0,0,0,0,0.0347,0.0348,0.0348,0.0366,0.0419,0.0419,0.0509,0.0464,0,0,0,0,0,0,0,0,0,0,0.041,0.0387,0.0348,0.0348,0.0366,0.0419,0.0419,0.0462,0.0467,0.049,0,0.0497,0,0.0504,0.0516,0.0516,0,0,0,0.037,0.0382,0.0399,0.0348,0.0367,0.0419,0.0396,0.0465,0.047,0.0497,0.0498,0.0501,0.0506,0.0516,0.0517,0.0627,0.0627,0,0,0.0367,0.0357,0.0395,0.0403,0.038,0.0395,0.0398,0.0468,0.0473,0.0498,0.0503,0.0507,0.0517,0.0518,0.0626,0.0627,0,0,0,0.0356,0.0355,0.0369,0.0399,0.0406,0.0396,0.04,0.047,0.0475,0.0504,0.0508,0.0518,0.0519,0.0625,0.0626,0.0656,0,0,0,0.0354,0.0348,0.0368,0.0362,0.0405,0.0435,0.04,0.047,0.0478,0.0508,0.0518,0.052,0.0625,0.0626,0.0654,0.0682,0,0,0,0.0345,0.0347,0.0353,0.0362,0.0383,0.0434,0.0443,0.0472,0.0481,0.0516,0.052,0.0625,0.0626,0.0652,0.0679,0.0753,0,0,0,0.0333,0.0352,0.0353,0.0383,0.0382,0.0441,0.0443,0.0487,0.0518,0.0518,0.0625,0.0626,0.0652,0.0677,0.075,0.0813,0.0832,0,0,0.0353,0.0354,0.0374,0.0377,0.0434,0.0434,0.0502,0.0537,0.0546,0.0603,0.0605,0.0655,0.0679,0.0752,0.0884,0.09,0,0,0,0.0378,0.0393,0.0411,0.0443,0.0479,0.0524,0.0552,0.0571,0.0622,0.0569,0.0672,0.0687,0.0732,0.0764,0.0777,0.0778,0.0632,0.0632,0.0632,0.039,0.0417,0.0461,0.0502,0.054,0.0592,0.0634,0.0667,0.0663,0.069,0.0722,0.0816,0.0849,0.086,0.086,0.0728,0.0728,0.0728,0.0728,0.0432,0.0464,0.0501,0.0552,0.06,0.0654,0.0723,0.0731,0.0814,0.0773,0.0815,0.0808,0.0877,0.0871,0.073,0.073,0.073,0.0729,0.0729,0.0446,0.0466,0.0497,0.0569,0.0638,0.0696,0.0793,0.0825,0.0857,0.0899,0.0963,0.0963,0.0951,0.0929,0.0929,0.093,0.093,0.093,0.0931,0.0447,0.0481,0.0524,0.0594,0.0643,0.0727,0.084,0.0917,0.1012,0.1025,0.1025,0.0995,0.0878,0.0862,0.0938,0.0937,0.0936,0.0935,0.0934,0.0469,0.0479,0.054,0.0587,0.0704,0.0819,0.0916,0.1105,0.1176,0.1246,0.1178,0.1101,0.1109,0.1098,0.1088,0.1219,0.1219,0.1219,0.1219,0.0472,0.0486,0.0559,0.0634,0.0737,0.0863,0.109,0.1249,0.133,0.1333,0.1294,0.1243,0.1231,0.1242,0.1228,0.1219,0.138,0.138,0.138,0.0486,0.0506,0.0554,0.0631,0.0752,0.0925,0.116,0.1336,0.1389,0.1383,0.1286,0.128,0.1195,0.1176,0.1179,0.1159,0.1138,0,0]}],[{"header":{"parameterUnit":"m.s-1","parameterCategory":2,"la1":30.2992,"la2":30.254,"lo1":-89.0895,"lo2":-89.0443,"dy":0.0025,"dx":0.0025,"nx":19,"ny":19,"refTime":"2026-05-17T03:00:00:Z","depth":"2","parameterNumber":2,"parameterNumberName":"U-component_of_CURRENTS"},"data":[0,0,0,0.1658,0.1659,0.1707,0.1707,0.1836,0.1837,0,0,0,0,0,0,0,0,0,0,0,0.1649,0.165,0.1658,0.1659,0.1707,0.1707,0.1836,0.1837,0,0,0,0,0,0,0,0,0,0,0,0.1649,0.165,0.165,0.1659,0.1707,0.1707,0.1835,0.1783,0,0,0,0,0,0,0,0,0,0,0.1728,0.1708,0.165,0.165,0.1659,0.1707,0.1707,0.178,0.1787,0.1832,0,0.1844,0,0.1842,0.1847,0.1848,0,0,0,0.1662,0.1702,0.1716,0.1651,0.166,0.1707,0.1686,0.1783,0.1791,0.1841,0.1846,0.185,0.1844,0.1848,0.1849,0.1929,0.1929,0,0,0.166,0.1659,0.1711,0.1721,0.168,0.1685,0.1688,0.1787,0.18,0.1846,0.1853,0.1846,0.1849,0.185,0.193,0.1929,0,0,0,0.165,0.1658,0.1667,0.1716,0.1719,0.1686,0.169,0.1795,0.1799,0.1854,0.1847,0.185,0.1852,0.193,0.193,0.1931,0,0,0,0.1648,0.1651,0.1666,0.1667,0.1716,0.1748,0.1696,0.1792,0.1803,0.1847,0.185,0.1853,0.193,0.193,0.1932,0.1935,0,0,0,0.1646,0.1651,0.1659,0.1667,0.1685,0.1745,0.1754,0.1794,0.1799,0.1848,0.1854,0.193,0.193,0.1932,0.1935,0.1997,0,0,0,0.164,0.1645,0.1659,0.1668,0.1684,0.1708,0.1753,0.1785,0.1822,0.1851,0.193,0.193,0.1932,0.1935,0.1996,0.1816,0.1806,0,0,0.1636,0.1644,0.1648,0.1661,0.1668,0.1701,0.1724,0.1794,0.183,0.1904,0.1906,0.1931,0.1935,0.1997,0.1786,0.1776,0,0,0,0.164,0.1641,0.1646,0.1659,0.1682,0.1714,0.1764,0.1797,0.1862,0.1849,0.192,0.1922,0.1962,0.1851,0.1843,0.1927,0.1927,0.1927,0.1927,0.1627,0.1635,0.1636,0.1651,0.1674,0.1727,0.1765,0.182,0.1856,0.1878,0.1915,0.1949,0.1827,0.182,0.1904,0.1904,0.1904,0.1904,0.1904,0.1605,0.16,0.1623,0.1625,0.1668,0.1702,0.1788,0.1825,0.1911,0.1907,0.1946,0.1845,0.1811,0.1904,0.1904,0.1904,0.1904,0.1904,0.1904,0.1581,0.1577,0.1589,0.1601,0.1639,0.1699,0.1772,0.1839,0.192,0.1952,0.1877,0.1874,0.1983,0.1993,0.1993,0.1993,0.1994,0.1994,0.1994,0.1549,0.1557,0.1558,0.1578,0.1589,0.1654,0.1779,0.1834,0.1864,0.1866,0.1865,0.198,0.1977,0.1989,0.1998,0.1997,0.1997,0.1997,0.1996,0.1508,0.1525,0.1513,0.1517,0.1557,0.1572,0.1694,0.1721,0.1799,0.1762,0.1825,0.1827,0.1823,0.1825,0.1832,0.1802,0.1802,0.1802,0.1802,0.1485,0.1492,0.1474,0.147,0.1501,0.1538,0.1491,0.1433,0.1492,0.1483,0.1497,0.1399,0.1413,0.1382,0.1395,0.1393,0.1248,0.1247,0.1246,0.1464,0.1459,0.1435,0.1441,0.1462,0.1492,0.134,0.1048,0.1009,0.1227,0.1428,0.1759,0.1649,0.1658,0.1638,0.1648,0.1655,0,0]},{"header":{"parameterUnit":"m.s-1","parameterCategory":2,"la1":30.2992,"la2":30.254,"lo1":-89.0895,"lo2":-89.0443,"dy":0.0025,"dx":0.0025,"nx":19,"ny":19,"refTime":"2026-05-17T03:00:00:Z","depth":"2","parameterNumber":3,"parameterNumberName":"V-component_of_CURRENTS"},"data":[0,0,0,0.0192,0.0193,0.025,0.025,0.031,0.0311,0,0,0,0,0,0,0,0,0,0,0,0.0177,0.0177,0.0192,0.0193,0.025,0.025,0.031,0.0311,0,0,0,0,0,0,0,0,0,0,0,0.0177,0.0177,0.0178,0.0193,0.025,0.025,0.031,0.0271,0,0,0,0,0,0,0,0,0,0,0.0218,0.0202,0.0177,0.0178,0.0193,0.0249,0.025,0.0269,0.0274,0.028,0,0.0292,0,0.0299,0.0314,0.0314,0,0,0,0.0197,0.0199,0.0215,0.0178,0.0194,0.0249,0.0225,0.0272,0.0276,0.0285,0.0293,0.0295,0.03,0.0314,0.0315,0.0381,0.0382,0,0,0.0194,0.0186,0.0212,0.0218,0.0213,0.0223,0.0227,0.0275,0.028,0.0293,0.0296,0.0301,0.0315,0.0315,0.0381,0.0382,0,0,0,0.0182,0.0183,0.0199,0.0216,0.0225,0.0225,0.0229,0.0278,0.0284,0.0297,0.0302,0.0315,0.0316,0.0381,0.0381,0.043,0,0,0,0.018,0.0176,0.0198,0.0193,0.0224,0.0253,0.0231,0.0281,0.0287,0.0301,0.0315,0.0316,0.038,0.0381,0.0427,0.0456,0,0,0,0.0174,0.0175,0.0184,0.0193,0.0215,0.0253,0.0262,0.0283,0.0289,0.0314,0.0316,0.038,0.0381,0.0426,0.0453,0.0538,0,0,0,0.0161,0.0183,0.0184,0.0214,0.0215,0.0268,0.0261,0.03,0.0325,0.0315,0.038,0.0381,0.0425,0.0451,0.0535,0.0573,0.059,0,0,0.0182,0.0185,0.0204,0.0206,0.0259,0.026,0.0316,0.034,0.0338,0.0363,0.0365,0.0428,0.0452,0.0537,0.0621,0.0637,0,0,0,0.0207,0.0223,0.0239,0.027,0.03,0.0342,0.0359,0.0368,0.0403,0.0355,0.0432,0.0446,0.0498,0.0514,0.0527,0.0385,0.0385,0.0385,0.0385,0.0225,0.0247,0.0289,0.0324,0.0358,0.04,0.0435,0.0452,0.0438,0.0459,0.0487,0.0587,0.0602,0.0613,0.0485,0.0485,0.0486,0.0486,0.0486,0.0266,0.0294,0.0327,0.0375,0.0417,0.0464,0.0514,0.0519,0.0584,0.0535,0.0584,0.0565,0.0631,0.049,0.0489,0.0488,0.0488,0.0488,0.0488,0.028,0.0298,0.0328,0.0397,0.0462,0.0511,0.0601,0.0617,0.0642,0.0684,0.0734,0.0734,0.0638,0.0725,0.0725,0.0726,0.0726,0.0727,0.0727,0.0282,0.0313,0.0359,0.0425,0.047,0.0554,0.0659,0.0726,0.0805,0.0804,0.0805,0.0668,0.0661,0.0653,0.0735,0.0733,0.0732,0.0732,0.0731,0.0306,0.0316,0.0379,0.0423,0.0537,0.0646,0.0737,0.0906,0.0971,0.1024,0.0883,0.0877,0.0876,0.0865,0.0862,0.0994,0.0994,0.0994,0.0994,0.0315,0.0327,0.0406,0.0476,0.0576,0.0691,0.0893,0.0994,0.1034,0.0999,0.0998,0.0928,0.0918,0.0914,0.0901,0.0897,0.1038,0.1038,0.1038,0.0335,0.0355,0.041,0.0483,0.0591,0.0763,0.0955,0.0997,0.0961,0.1034,0.0953,0.1007,0.0897,0.0884,0.0869,0.0852,0.0842,0,0]}],[{"header":{"parameterUnit":"m.s-1","parameterCategory":2,"la1":30.2992,"la2":30.254,"lo1":-89.0895,"lo2":-89.0443,"dy":0.0025,"dx":0.0025,"nx":19,"ny":19,"refTime":"2026-05-17T03:00:00:Z","depth":"4","parameterNumber":2,"parameterNumberName":"U-component_of_CURRENTS"},"data":[0,0,0,0.0858,0.0859,0.0913,0.0913,0.0892,0.0891,0,0,0,0,0,0,0,0,0,0,0,0.0841,0.0841,0.0858,0.0859,0.0913,0.0913,0.0892,0.0891,0,0,0,0,0,0,0,0,0,0,0,0.0841,0.0841,0.0842,0.0859,0.0913,0.0913,0.0892,0.0874,0,0,0,0,0,0,0,0,0,0,0.0833,0.0844,0.0841,0.0842,0.0859,0.0913,0.0913,0.0874,0.0875,0.0841,0,0.0855,0,0.0869,0.0888,0.0888,0,0,0,0.086,0.0843,0.0843,0.0842,0.086,0.0913,0.0889,0.0875,0.0876,0.0842,0.0855,0.0855,0.0869,0.0887,0.0887,0.0911,0.0912,0,0,0.0857,0.0861,0.0843,0.0844,0.0878,0.0887,0.089,0.0877,0.0886,0.0855,0.0855,0.0868,0.0887,0.0887,0.0911,0.0911,0,0,0,0.0848,0.0859,0.0862,0.0844,0.086,0.0888,0.0892,0.0887,0.0884,0.0854,0.0868,0.0887,0.0886,0.091,0.0911,0.0942,0,0,0,0.0846,0.0854,0.0861,0.0866,0.0861,0.089,0.0902,0.0885,0.0884,0.0868,0.0887,0.0886,0.0909,0.091,0.094,0.0935,0,0,0,0.0838,0.0853,0.0858,0.0865,0.0887,0.089,0.0888,0.0886,0.0892,0.0888,0.0886,0.0909,0.091,0.0938,0.0932,0.0923,0,0,0,0.0842,0.0847,0.0858,0.0866,0.0886,0.09,0.0889,0.0913,0.0915,0.0887,0.0909,0.0911,0.0937,0.093,0.0921,0.0753,0,0,0,0.0843,0.0848,0.0848,0.0858,0.0861,0.0893,0.0907,0.0914,0.0927,0.0905,0.0906,0.0941,0.0932,0.0922,0.0848,0,0,0,0,0.0843,0.0843,0.0846,0.0855,0.0869,0.0893,0.0915,0.093,0.0968,0.0935,0.0964,0.0957,0.095,0.085,0.0918,0.0918,0.0918,0.0918,0.0918,0.0841,0.0839,0.0839,0.0845,0.086,0.0899,0.0932,0.0963,0.0967,0.1014,0.1001,0.1039,0.0939,0.1032,0.1032,0.1032,0.1032,0.1033,0.1033,0.0819,0.0809,0.0824,0.0829,0.0857,0.0882,0.0938,0.0979,0.1033,0.1045,0.1036,0.0914,0.1036,0.1036,0.1035,0.1035,0.1034,0.1034,0.1034,0.0794,0.0791,0.0807,0.0817,0.0842,0.0885,0.0898,0.098,0.105,0.1077,0.0952,0.1049,0.1023,0.1074,0.1074,0.1074,0.1074,0.1074,0.1074,0.0764,0.0773,0.0778,0.0798,0.0806,0.083,0.0891,0.0903,0.0976,0.0958,0.108,0.1052,0.1051,0.1025,0.1074,0.1074,0.1074,0.1074,0.1074,0.0725,0.074,0.073,0.0737,0.0721,0.0688,0.0785,0.0775,0.078,0.0772,0.0884,0.0894,0.0855,0.0858,0.0824,0.0814,0.0812,0.081,0,0.0703,0.0705,0.0672,0.063,0.0556,0.0585,0.0529,0.0553,0.0638,0.0636,0.0747,0.087,0.0878,0.083,0.083,0.0786,0,0,0,0.0681,0.0674,0.0623,0.0569,0.0451,0.0426,0.0488,0.0468,0.0688,0.0608,0.0758,0.0772,0.0871,0.1072,0.1034,0.1032,0.0989,0,0]},{"header":{"parameterUnit":"m.s-1","parameterCategory":2,"la1":30.2992,"la2":30.254,"lo1":-89.0895,"lo2":-89.0443,"dy":0.0025,"dx":0.0025,"nx":19,"ny":19,"refTime":"2026-05-17T03:00:00:Z","depth":"4","parameterNumber":3,"parameterNumberName":"V-component_of_CURRENTS"},"data":[0,0,0,0.0065,0.0066,0.0101,0.0101,0.0131,0.0131,0,0,0,0,0,0,0,0,0,0,0,0.0054,0.0054,0.0065,0.0066,0.0101,0.0101,0.0131,0.0131,0,0,0,0,0,0,0,0,0,0,0,0.0054,0.0054,0.0054,0.0066,0.0101,0.0101,0.0131,0.0109,0,0,0,0,0,0,0,0,0,0,0.0077,0.0068,0.0054,0.0054,0.0066,0.0101,0.0101,0.0108,0.011,0.011,0,0.0115,0,0.0122,0.0133,0.0133,0,0,0,0.0069,0.0066,0.0074,0.0054,0.0067,0.0101,0.0086,0.011,0.0112,0.0113,0.0116,0.0117,0.0123,0.0133,0.0133,0.0184,0.0184,0,0,0.0067,0.0062,0.0073,0.0076,0.0075,0.0085,0.0087,0.0111,0.0114,0.0116,0.0118,0.0123,0.0133,0.0133,0.0183,0.0184,0,0,0,0.0059,0.006,0.0068,0.0075,0.0081,0.0086,0.0088,0.0113,0.0115,0.0118,0.0123,0.0133,0.0133,0.0183,0.0183,0.0231,0,0,0,0.0058,0.0056,0.0067,0.0065,0.0081,0.01,0.0089,0.0114,0.0117,0.0123,0.0133,0.0134,0.0182,0.0183,0.0229,0.0261,0,0,0,0.0052,0.0055,0.0058,0.0064,0.0078,0.0099,0.0104,0.0115,0.012,0.0133,0.0134,0.0182,0.0183,0.0227,0.0257,0.0308,0,0,0,0.0046,0.0058,0.0058,0.0077,0.0077,0.0114,0.0104,0.013,0.0144,0.0133,0.0182,0.0183,0.0226,0.0255,0.0305,0.0264,0,0,0,0.0058,0.0059,0.0072,0.0073,0.0111,0.0109,0.0154,0.0165,0.0158,0.0173,0.0174,0.0229,0.0257,0.0307,0.0319,0,0,0,0,0.0075,0.0084,0.0096,0.0118,0.0139,0.0175,0.0182,0.0192,0.0219,0.017,0.0235,0.0252,0.0282,0.0249,0.0188,0.0188,0.0188,0.0188,0.0187,0.0084,0.0101,0.0131,0.0158,0.0185,0.0221,0.0255,0.0271,0.025,0.0273,0.0294,0.0372,0.0339,0.0292,0.0292,0.0292,0.0293,0.0293,0.0293,0.0108,0.0127,0.0157,0.0191,0.0232,0.0272,0.0327,0.0333,0.0389,0.0349,0.0376,0.0306,0.0298,0.0297,0.0296,0.0295,0.0295,0.0295,0.0295,0.0112,0.0126,0.0147,0.0202,0.0265,0.0314,0.0403,0.0431,0.0441,0.0476,0.0445,0.0417,0.0409,0.0488,0.0488,0.0489,0.0489,0.0489,0.0489,0.0106,0.0131,0.0164,0.0222,0.0273,0.0359,0.0457,0.0505,0.0524,0.0511,0.0496,0.0438,0.0431,0.0421,0.0495,0.0494,0.0493,0.0493,0.0492,0.0118,0.0124,0.0174,0.022,0.0343,0.0412,0.0499,0.0563,0.0615,0.061,0.0531,0.0527,0.0512,0.0505,0.0496,0.0595,0.0595,0.0595,0,0.0123,0.0129,0.0196,0.0275,0.0383,0.0455,0.054,0.0589,0.0588,0.0571,0.0607,0.0516,0.0512,0.0492,0.0484,0.0473,0,0,0,0.0139,0.0154,0.0205,0.0278,0.0403,0.0504,0.057,0.0576,0.0579,0.06,0.0589,0.059,0.053,0.0512,0.0482,0.0474,0.0456,0,0]}]]